STARLINK-32792 (62504 NORAD) Tracking and Keplerian Element Data

This shows tracking and keplerian element data for the satellite.

Feedback or suggestion? Click here.




ElementValue
Catalog62504
NameSTARLINK-32792
Epoch Orbit538
Epoch Day34.04680242
Epoch Year2025
RAAN30.0721
Inclination43.0006
Eccentricity0.0001473
Argument of Perigee275.7364
Mean Anonmoly84.3328
Mean Motion15.50574284
Decay Rate4.24E-06
L11 62504U 25003T 25034.04680242 .00000424 00000+0 13046-4 0 9994
L22 62504 43.0006 30.0721 0001473 275.7364 84.3328 15.50574284 5389



Live tracking and technical data element details for STARLINK-32792 (NORAD 62504). STARLINK-32792 can be tracked NOW for your location showing map with azimuth and elevation plus other details from your city location.







IsCatalogInMostPopularTable: catalog: 62504, numindb: 16
Update: records affected: 1



GetName: 62504 STARLINK-32792

Hit Count: updated at: Sun, 18 May 2025 23:21:15 GMT